Back to catalog

FENGYUN 1C DEB

AliveSSO
NORAD 29916·DEBRIS·🇨🇳 China

Launched May 10, 1999 from Taiyuan Satellite Launch Center

Loading…

Next Passes (next 24 hours)

TLE

FreshSource: Space-Track

Epoch: Sep 13, 2026, 11:59 UTC

1 29916U 99025HN  26256.49958898  .00000337  00000-0  42012-3 0  9998
2 29916  99.1860 262.9804 0269780 275.7304 240.1432 13.57288369971794

Track FENGYUN 1C DEB in real time with AllMySat

Download on the App Store